sat.trackr.live / text

‹ back to catalog

SIRION PATHFINDER-2

NORAD 43759 · 2018-099B

PAYLOAD ACTIVE UNKNOWN

§ Identity

Operator
Country
US
Launch date
2018-12-03
Launch site
AFWTR
Launch vehicle
Mass (kg)
RCS (m²)

Purposes: tech_demo

External: N2YO · Heavens-Above · Gunter

§ Orbital elements

Epoch: 2026-09-19T08:57:12.259584Z

Period
95.04 min
Inclination
97.4163°
Eccentricity
0.0007939
Mean motion
15.15221255 rev/d
Perigee alt
514.8 km
Apogee alt
525.8 km
Semi-major
6,898.4 km
B*
1.4377e-4
RAAN
309.1879°
Arg perigee
343.9211°
Mean anomaly
16.1769°
Rev number
42,688

§ Raw data

SIRION PATHFINDER-21 43759U 18099B   26262.37305856  .00002637  00000+0  14377-3 0  99922 43759  97.4163 309.1879 0007939 343.9211  16.1769 15.15221255426885

JSON: /api/v1/satellites/43759 · /tle

For live sub-satellite position, see the globe view (requires WebGL).

§ Visibility from observer

Set your observer location to see the next 7 days of passes ≥ 10°. The values pass through the URL so the page stays shareable.

No JS? Fill the form by hand. The geolocation button needs JavaScript.